Wind_Speed
5 5 5 6 7 8 9 10 12 13 13 14 15 16 17 17 17 17 18 18 18 18 19 19 20 21 22 22 22 23 23 24 24 25 24 24 25 26 26 26 26 26 27
6 7 7 7 8 9 10 11 12 14 14 15 15 16 17 18 18 18 18 19 19 20 20 21 22 22 23 23 24 25 25 25 26 27 27 27 27 28 29 29 29 29 29
8 8 9 10 10 11 11 11 11 13 14 15 16 17 18 19 19 19 20 21 22 22 23 24 24 24 24 25 25 26 27 28 28 30 30 30 30 31 31 32 33 33 33
9 10 11 11 11 11 11 11 12 13 14 15 16 17 19 19 20 20 21 22 22 23 24 25 26 27 26 27 27 28 29 30 30 31 31 31 32 32 33 34 35 35 36
11 12 12 12 12 12 12 13 13 14 15 16 17 18 20 21 22 22 23 23 23 24 25 26 27 29 29 29 29 30 31 32 33 33 33 33 34 35 35 35 36 37 37
13 13 13 13 13 13 13 13 14 14 15 16 17 18 19 20 21 22 23 24 24 25 26 27 29 30 31 31 31 32 33 33 34 34 35 35 35 36 37 37 38 39 39
14 14 14 14 14 14 14 15 15 16 17 17 17 18 18 19 20 22 23 25 26 26 27 29 30 30 31 32 33 34 34 34 34 34 35 35 37 38 39 39 40 41 41
17 17 16 16 15 16 15 16 17 18 18 18 19 19 20 21 22 23 24 26 27 28 29 30 30 30 31 32 33 34 34 34 34 35 36 37 38 39 39 40 41 41 42
19 19 18 17 17 17 17 18 19 19 19 20 20 21 22 23 24 25 27 27 28 28 29 30 30 30 30 32 33 34 34 34 34 35 36 37 39 40 41 41 41 43 44
21 20 20 19 19 19 19 19 20 21 21 22 23 23 23 24 25 26 27 27 28 28 28 28 30 30 31 33 34 35 35 35 35 36 37 38 39 39 41 42 43 45 46
22 22 22 21 21 21 22 22 21 22 22 23 23 24 24 25 26 26 26 27 27 27 28 29 30 30 31 33 34 35 35 36 37 38 39 39 40 41 42 43 45 46 47
25 25 24 24 24 23 23 23 23 23 23 24 24 25 26 26 26 27 27 27 28 28 29 30 31 32 32 33 34 35 36 37 38 39 40 40 41 42 44 45 46 47 48
26 27 27 26 25 25 25 25 25 25 26 26 26 26 27 27 27 28 28 29 29 30 31 32 33 33 33 35 35 36 37 38 38 39 40 41 43 43 44 45 46 47 48
27 27 27 28 27 27 26 26 27 27 27 27 28 28 28 27 28 29 29 30 31 32 33 34 34 34 34 35 36 36 37 38 39 40 41 43 43 43 44 44 45 46 46
28 28 28 28 28 27 27 27 28 28 28 29 29 29 28 28 29 29 30 30 32 33 33 34 35 35 35 35 36 38 39 41 41 42 42 42 42 43 43 43 44 44 45
28 27 27 26 27 27 27 28 28 28 28 28 27 28 28 28 29 30 31 32 32 33 33 34 35 36 37 37 38 38 39 39 40 41 41 41 42 42 42 43 43 43 43
27 27 26 25 26 26 26 27 27 27 27 27 26 27 28 29 30 30 31 32 32 33 34 35 36 36 37 38 38 38 38 39 39 39 40 40 40 40 40 41 41 40 40
26 26 26 25 25 25 25 25 25 25 26 26 27 27 28 29 29 30 31 32 33 34 35 36 36 36 36 35 36 37 37 37 38 38 38 38 38 38 38 38 38 37 37
26 26 25 24 24 24 24 24 25 25 27 27 28 29 29 29 30 31 31 32 33 34 35 35 34 34 33 34 35 35 35 35 36 36 36 36 36 37 36 36 36 36 35
24 24 24 24 23 23 23 23 24 25 27 28 28 28 28 29 29 30 31 32 32 33 33 32 32 32 32 32 32 32 33 34 34 34 34 35 35 35 35 34 34 34 34
23 23 22 22 22 22 22 23 24 25 26 26 26 26 26 27 28 29 30 31 31 31 30 30 30 30 30 30 30 31 32 32 32 33 33 33 33 33 33 33 33 33 33
20 21 22 22 21 22 22 23 23 23 23 24 24 25 27 27 28 29 29 29 29 29 29 29 29 29 29 30 30 30 31 31 31 31 31 31 32 32 32 32 31 31 30
19 19 20 21 21 21 21 21 22 23 23 24 25 26 27 27 28 28 28 28 29 29 29 28 28 28 29 29 29 29 30 30 30 30 29 30 30 29 29 29 29 29 29
18 18 18 18 18 19 20 21 22 22 23 24 25 26 27 27 27 27 28 28 29 28 28 28 28 28 28 28 28 28 29 28 28 28 28 28 28 28 28 28 28 29 29
16 17 17 17 18 19 20 22 23 23 25 26 26 27 27 27 28 28 28 28 28 27 27 27 27 27 27 27 27 27 27 27 27 27 27 26 27 27 27 28 28 29 29
16 17 17 19 20 21 22 23 24 25 26 26 27 27 27 27 27 27 27 27 26 26 26 25 25 26 26 26 26 25 25 25 25 25 25 26 26 26 27 28 28 28 28
Wind_Direction
280 269 257 251 251 254 249 248 247 247 248 249 248 248 247 249 254 256 254 255 259 261 262 266 269 271 273 273 274 277 279 281 283 284 285 286 286 286 285 285 286 286 285
289 281 273 266 265 268 262 258 256 254 255 255 254 253 250 252 256 259 261 260 261 264 266 268 270 272 276 275 275 277 279 281 282 283 285 284 285 286 286 285 284 284 283
294 291 283 278 276 275 270 269 265 260 260 259 256 257 256 257 261 264 265 263 265 266 267 269 270 273 275 275 275 277 279 280 281 282 284 284 284 284 284 285 285 285 284
296 293 290 283 277 276 272 272 271 268 267 265 264 264 261 260 262 264 265 265 267 268 270 271 271 272 275 276 279 280 280 281 282 283 284 284 284 284 285 285 285 285 285
295 295 292 288 282 276 273 274 272 270 271 269 269 268 265 264 266 266 267 267 268 270 272 273 276 276 276 278 279 280 282 283 282 282 283 283 284 285 285 285 285 285 285
296 297 295 290 284 279 275 278 275 274 276 275 274 273 272 271 270 271 271 271 272 274 276 278 280 280 279 280 281 282 283 284 284 283 283 284 285 285 285 286 285 285 286
293 295 294 291 287 283 281 281 280 278 278 281 279 278 278 277 276 275 277 277 278 278 279 280 282 283 282 282 284 285 286 286 287 286 284 286 287 287 287 287 287 286 286
287 291 293 293 289 288 285 284 283 282 281 284 282 281 282 281 279 279 280 280 280 280 280 282 283 284 284 285 287 286 286 287 289 288 287 287 288 288 288 288 288 288 289
283 286 290 290 289 288 287 285 283 283 282 282 282 283 284 283 282 282 283 282 282 283 282 282 284 286 286 287 288 287 287 287 288 289 289 290 290 290 290 289 289 289 290
280 282 285 288 287 287 287 287 287 285 284 283 283 284 286 288 286 283 283 283 283 283 284 284 285 286 286 287 287 288 289 289 289 289 290 291 292 292 292 292 292 292 292
278 280 283 285 285 286 287 287 287 288 286 286 287 287 288 289 288 287 286 285 286 286 286 287 287 289 290 289 289 290 290 290 291 292 293 293 294 294 294 295 295 295 295
277 278 281 282 283 285 286 286 287 288 288 288 288 288 289 290 289 288 287 286 288 289 289 289 289 291 292 293 292 292 292 292 293 294 294 294 295 295 296 296 296 296 296
276 277 279 282 284 284 284 286 287 287 287 287 286 287 288 289 289 289 288 287 288 289 289 290 292 291 292 294 294 294 294 294 294 295 295 296 296 296 296 297 297 297 298
276 278 279 280 282 282 281 283 285 286 287 286 286 287 288 288 287 287 287 287 287 289 290 292 294 293 294 295 295 295 295 295 295 296 296 297 297 297 297 298 299 299 299
275 277 278 278 278 279 282 284 285 286 286 286 287 286 287 289 289 289 289 288 289 291 292 293 293 294 295 295 296 296 296 297 297 298 299 299 300 300 301 301 302 302 302
276 277 276 278 279 280 282 284 286 286 286 286 286 287 288 289 289 289 290 291 293 293 293 293 293 294 295 296 297 298 299 299 299 300 301 301 302 303 304 304 305 305 305
276 276 276 277 279 281 282 283 284 284 286 286 286 288 289 290 291 291 294 295 296 296 295 295 295 295 296 296 297 298 299 300 301 302 303 304 304 305 306 306 307 308 308
274 274 276 278 281 282 283 284 284 285 286 287 288 289 290 291 292 292 294 295 296 296 296 296 296 296 297 298 300 300 301 302 303 304 305 306 307 307 308 309 310 311 311
273 273 275 278 280 281 283 285 285 285 286 288 290 290 290 290 292 293 293 295 296 296 297 297 297 297 298 299 301 302 303 304 306 307 307 307 309 310 311 311 311 312 312
272 273 274 277 279 282 283 285 287 287 287 288 289 289 290 292 295 296 295 295 296 297 298 298 299 299 300 301 303 304 305 306 307 308 309 310 311 312 313 313 313 313 314
271 274 276 278 280 282 286 288 289 290 291 291 291 292 294 296 296 296 296 297 298 299 300 301 302 302 303 304 306 307 308 309 310 311 312 312 314 315 315 315 316 316 316
269 274 277 280 282 284 287 290 292 292 293 296 297 297 296 297 297 298 299 301 302 302 302 302 303 305 306 307 307 309 310 311 313 314 314 315 316 317 318 318 319 319 319
272 277 281 282 282 285 288 290 292 294 296 297 297 298 299 300 301 301 301 302 302 303 303 304 305 306 307 308 309 310 312 313 314 315 316 317 318 319 320 321 322 322 322
277 280 282 285 288 290 292 293 295 297 298 298 299 300 302 302 302 301 301 301 302 303 304 305 306 308 309 309 311 312 313 314 315 317 318 318 319 321 322 323 324 324 325
279 282 284 288 291 293 293 294 295 296 298 299 299 300 301 302 301 301 300 301 302 303 304 306 308 308 309 311 312 313 314 315 317 318 319 320 321 322 323 324 324 325 326
282 286 289 290 291 292 293 295 296 298 298 299 299 299 300 300 301 301 301 302 304 305 305 307 308 309 310 312 313 314 315 317 318 319 320 321 322 323 324 325 326 327 327
Height
5852 5853 5854 5854 5855 5856 5856 5857 5858 5859 5860 5861 5862 5863 5864 5865 5866 5867 5868 5869 5869 5870 5870 5871 5871 5871 5871 5871 5871 5870 5870 5870 5869 5868 5867 5867 5865 5864 5863 5862 5861 5861 5859
5852 5852 5853 5853 5854 5854 5854 5854 5855 5856 5857 5858 5859 5859 5860 5861 5862 5863 5864 5864 5865 5866 5866 5866 5866 5866 5866 5865 5865 5865 5864 5864 5863 5862 5861 5860 5859 5857 5856 5855 5854 5853 5852
5851 5851 5851 5851 5852 5852 5852 5852 5852 5853 5854 5854 5855 5855 5856 5857 5858 5858 5859 5860 5860 5860 5861 5861 5861 5861 5860 5860 5859 5858 5858 5857 5856 5855 5854 5853 5851 5850 5848 5847 5845 5844 5843
5849 5849 5849 5849 5849 5849 5849 5850 5850 5850 5851 5851 5851 5852 5852 5853 5853 5854 5854 5854 5855 5855 5855 5855 5855 5854 5854 5853 5852 5851 5850 5850 5849 5847 5846 5845 5843 5842 5840 5838 5837 5835 5833
5848 5847 5847 5846 5846 5846 5847 5847 5847 5847 5847 5847 5847 5848 5848 5848 5848 5849 5849 5849 5849 5849 5849 5849 5848 5848 5847 5846 5845 5844 5843 5842 5841 5839 5838 5836 5835 5833 5831 5829 5827 5825 5823
5845 5845 5844 5843 5843 5843 5843 5843 5843 5843 5843 5843 5843 5843 5843 5843 5843 5843 5843 5843 5843 5843 5842 5842 5841 5840 5839 5838 5837 5836 5835 5833 5832 5830 5829 5827 5825 5823 5821 5819 5817 5815 5813
5842 5842 5841 5840 5840 5840 5840 5840 5839 5839 5839 5839 5839 5838 5838 5838 5838 5838 5838 5837 5837 5836 5835 5835 5834 5833 5832 5831 5829 5828 5826 5825 5823 5821 5819 5818 5816 5814 5811 5809 5806 5804 5801
5839 5838 5838 5837 5836 5836 5835 5835 5835 5835 5835 5835 5834 5833 5833 5833 5832 5832 5831 5831 5830 5829 5828 5827 5826 5825 5824 5823 5821 5819 5818 5816 5814 5812 5810 5808 5806 5803 5801 5798 5795 5792 5790
5835 5835 5834 5833 5833 5832 5832 5831 5831 5830 5830 5830 5829 5828 5827 5827 5826 5825 5825 5824 5823 5822 5821 5820 5818 5817 5816 5814 5813 5811 5809 5807 5805 5802 5800 5798 5795 5792 5789 5787 5784 5781 5778
5831 5830 5830 5829 5828 5828 5827 5827 5826 5825 5825 5824 5823 5823 5822 5821 5820 5819 5818 5817 5816 5814 5813 5812 5811 5809 5808 5806 5804 5802 5800 5798 5795 5793 5790 5787 5784 5781 5778 5775 5771 5768 5764
5825 5825 5825 5824 5824 5823 5822 5821 5821 5820 5819 5818 5817 5817 5816 5815 5814 5812 5811 5810 5809 5807 5806 5804 5803 5801 5799 5797 5795 5793 5790 5788 5785 5782 5780 5777 5773 5770 5766 5762 5758 5755 5750
5820 5819 5819 5819 5818 5817 5817 5816 5815 5815 5814 5812 5811 5810 5809 5808 5807 5805 5804 5803 5802 5800 5799 5797 5794 5792 5790 5788 5785 5783 5780 5777 5774 5771 5768 5765 5762 5758 5754 5750 5745 5741 5736
5814 5813 5813 5812 5812 5811 5811 5810 5809 5808 5807 5806 5805 5803 5802 5801 5799 5798 5796 5795 5794 5792 5790 5788 5786 5783 5781 5778 5776 5773 5770 5767 5763 5760 5757 5753 5749 5745 5741 5737 5732 5727 5722
5807 5807 5806 5806 5805 5804 5804 5803 5802 5801 5800 5799 5798 5796 5795 5793 5792 5791 5789 5787 5785 5783 5781 5779 5777 5774 5772 5769 5766 5763 5760 5756 5753 5749 5746 5742 5737 5733 5728 5724 5719 5714 5709
5800 5800 5799 5798 5798 5797 5796 5796 5795 5794 5793 5792 5790 5789 5788 5786 5785 5783 5781 5779 5777 5774 5772 5770 5768 5765 5762 5759 5756 5753 5749 5746 5742 5738 5734 5729 5725 5720 5716 5711 5706 5700 5695
5793 5792 5792 5791 5791 5790 5789 5788 5787 5786 5785 5784 5783 5782 5780 5779 5777 5775 5773 5771 5768 5766 5764 5761 5759 5755 5752 5749 5746 5742 5739 5734 5731 5726 5722 5718 5713 5708 5703 5698 5693 5688 5682
5785 5785 5785 5784 5784 5783 5782 5781 5780 5779 5778 5777 5776 5774 5773 5771 5769 5767 5764 5762 5759 5757 5754 5751 5748 5745 5742 5739 5735 5732 5728 5724 5720 5716 5711 5706 5702 5697 5692 5687 5682 5676 5671
5778 5778 5778 5777 5777 5776 5775 5774 5773 5772 5771 5770 5768 5767 5765 5763 5761 5758 5756 5753 5751 5748 5745 5742 5739 5735 5732 5729 5725 5722 5718 5714 5710 5705 5701 5696 5691 5687 5682 5676 5671 5666 5661
5772 5771 5771 5771 5770 5769 5768 5768 5767 5766 5764 5763 5761 5759 5757 5755 5753 5750 5748 5745 5742 5739 5736 5733 5729 5726 5722 5719 5715 5712 5708 5704 5699 5695 5691 5686 5682 5677 5672 5667 5662 5657 5652
5764 5764 5764 5764 5763 5762 5762 5761 5760 5759 5757 5755 5753 5751 5749 5747 5745 5743 5740 5737 5734 5730 5727 5724 5720 5716 5713 5709 5706 5702 5699 5695 5690 5686 5682 5677 5672 5668 5663 5658 5653 5648 5643
5758 5758 5757 5757 5757 5756 5755 5754 5753 5751 5750 5748 5746 5744 5742 5740 5737 5735 5731 5728 5725 5722 5718 5715 5711 5708 5704 5701 5697 5694 5690 5686 5682 5678 5673 5669 5664 5659 5654 5650 5645 5640 5635
5752 5752 5751 5751 5750 5749 5748 5747 5746 5745 5743 5741 5739 5737 5734 5732 5729 5726 5723 5720 5717 5713 5710 5707 5704 5700 5697 5693 5690 5686 5682 5678 5674 5670 5665 5661 5656 5652 5647 5643 5638 5633 5628
5746 5746 5745 5745 5744 5743 5742 5741 5739 5738 5736 5734 5732 5729 5727 5724 5721 5718 5715 5712 5709 5706 5702 5699 5696 5692 5689 5686 5682 5678 5674 5670 5666 5662 5658 5654 5649 5645 5641 5636 5632 5627 5622
5741 5741 5740 5739 5738 5737 5735 5734 5733 5731 5729 5727 5724 5722 5719 5716 5714 5711 5708 5704 5701 5698 5695 5692 5688 5685 5682 5679 5675 5671 5667 5663 5660 5656 5651 5647 5643 5639 5635 5630 5626 5621 5616
5736 5735 5734 5733 5732 5731 5729 5728 5726 5724 5722 5719 5717 5714 5712 5709 5706 5703 5700 5697 5694 5691 5688 5685 5682 5679 5675 5672 5668 5665 5661 5657 5653 5650 5646 5641 5638 5633 5629 5625 5620 5616 5611
5731 5730 5728 5727 5726 5725 5723 5721 5719 5717 5714 5712 5709 5706 5704 5701 5698 5696 5693 5690 5687 5684 5681 5678 5675 5672 5669 5666 5662 5659 5655 5652 5648 5644 5640 5636 5632 5628 5624 5619 5615 5610 5605